User: anonymous   Login
Location: Unspecified
(0.0000°N, 0.0000°E)
Time: 07:09:06
(UTC+00:00)
Language:

CUTE-I - Orbit

View from above orbital plane
View from above orbital plane
View from above satellite
View from above satellite

Ground track
Ground track

The orbit data is extracted from the following two-line orbital elements,

1 27844U 03031E   17178.84044295 +.00000033 +00000-0 +34530-4 0  9997
2 27844 098.6889 187.6920 0008931 322.9706 037.0855 14.22043953725834
Epoch (UTC): 27 June 2017 20:10:14
Eccentricity: 0.0008931
inclination: 98.6889°
perigee height: 812 km
apogee height: 825 km
right ascension of ascending node: 187.6920°
argument of perigee: 322.9706°
revolutions per day: 14.22043953
mean anomaly at epoch: 37.0855°
orbit number at epoch: 72583

The dashed part of the orbit path shows where the satellite is in the earth's shadow,  

DLR